KC8YVF-1 Weather Reports


Display with metric or nautical units.
time (UTC)temp
F
wind
direction
speed
MPH
gust
MPH
rain 1hr
in
rain 24hr
in
rain mn
in
humidity
%
barometer
mb
20260905092359 67 90 0.0 0.0 0.00 0.00 0.00 88 1002.0
20260905090858 67 68 0.0 0.0 0.00 0.00 0.00 88 1002.0
20260905085359 67 68 0.0 0.0 0.00 0.00 0.00 88 1002.0
20260905083859 67 90 0.0 0.0 0.00 0.00 0.00 87 1002.0
20260905082358 67 113 0.0 0.0 0.00 0.00 0.00 87 1002.0
20260905080859 67 90 0.0 0.0 0.00 0.00 0.00 88 1001.6
20260905075358 67 90 0.0 0.0 0.00 0.00 0.00 88 1001.4
20260905073858 66 90 0.0 0.0 0.00 0.00 0.00 87 1001.6
20260905072359 67 90 0.0 0.0 0.00 0.00 0.00 87 1001.0
20260905070859 67 90 0.0 0.0 0.00 0.00 0.00 87 1000.6
20260905065357 67 68 0.0 0.0 0.00 0.00 0.00 87 1001.0
20260905063858 67 68 0.0 0.0 0.00 0.00 0.00 87 1001.3
20260905062359 67 90 0.0 0.0 0.00 0.00 0.00 87 1001.6
20260905060857 67 68 0.0 0.0 0.00 0.00 0.00 88 1001.7
20260905055358 67 90 0.0 0.0 0.00 0.00 0.00 88 1002.0
20260905053858 67 90 0.0 0.0 0.00 0.00 0.00 88 1002.0
20260905052358 67 68 0.0 0.0 0.00 0.00 0.00 88 1002.0
20260905050858 67 45 0.0 0.0 0.00 0.00 0.00 88 1001.7
20260905045358 67 23 0.0 0.0 0.00 0.00 0.00 88 1001.6
20260905043858 68 23 0.0 0.0 0.00 0.00 0.00 88 1001.6
20260905042357 68 68 0.0 0.0 0.00 0.00 0.00 87 1001.6
20260905040857 68 68 0.0 0.0 0.00 0.00 0.00 87 1001.6
20260905035358 69 90 0.0 0.0 0.00 0.00 0.00 88 1001.7
20260905033857 69 90 0.0 0.0 0.00 0.00 0.00 88 1002.0
20260905032357 70 90 0.0 0.0 0.00 0.00 0.00 88 1002.0
20260905030857 70 90 0.0 0.0 0.00 0.00 0.00 88 1002.0
20260905025358 70 90 0.0 0.0 0.00 0.00 0.00 88 1002.0
20260905023857 71 90 0.0 0.0 0.00 0.00 0.00 88 1002.0
20260905022356 71 113 0.0 0.0 0.00 0.00 0.00 88 1002.0
20260905020857 72 113 0.0 0.0 0.00 0.00 0.00 87 1002.3
20260905015357 72 113 0.0 0.0 0.00 0.00 0.00 87 1002.0
20260905013857 72 23 0.0 0.0 0.00 0.00 0.00 88 1002.0
20260905012356 72 68 0.0 0.0 0.00 0.00 0.00 88 1002.3
20260905010857 72 0 0.0 0.0 0.00 0.00 0.00 88 1002.0
20260905005356 72 23 0.0 0.0 0.00 0.00 0.00 87 1001.6
20260905003857 73 23 0.0 0.0 0.00 0.00 0.00 86 1001.6
20260905000857 73 23 0.0 0.0 0.00 0.00 0.00 86 1001.4
20260904235357 73 0 0.0 0.0 0.00 0.00 0.00 85 1001.3
20260904233856 74 23 0.0 0.0 0.00 0.00 0.00 85 1001.3
20260904232356 74 23 0.0 0.0 0.00 0.00 0.00 85 1001.3
20260904230855 74 68 0.0 0.0 0.00 0.00 0.00 84 1001.2
20260904225356 74 90 0.0 0.0 0.00 0.00 0.00 84 1001.0
20260904223856 75 45 0.0 0.0 0.00 0.00 0.00 84 1001.0
20260904222357 76 45 0.0 0.0 0.00 0.00 0.00 84 1000.5
20260904220855 77 45 0.0 0.0 0.00 0.00 0.00 83 1000.6
20260904215356 78 23 0.0 0.0 0.00 0.00 0.00 83 1000.4
20260904213856 78 68 0.0 0.0 0.00 0.00 0.00 82 1000.3
20260904212356 80 338 0.0 0.0 0.00 0.00 0.00 80 1000.3
20260904210859 81 45 0.0 0.0 0.00 0.00 0.00 77 1000.3
20260904205356 83 338 3.0 3.0 0.00 0.00 0.00 75 1000.3
20260904203856 83 315 0.0 0.0 0.00 0.00 0.00 75 1000.3
20260904202357 84 315 0.0 0.0 0.00 0.00 0.00 75 1000.3
20260904200856 84 270 0.0 0.0 0.00 0.00 0.00 75 1000.3
20260904195356 84 270 0.0 0.0 0.00 0.04 0.00 77 1000.4
20260904193857 84 293 0.0 0.0 0.00 0.06 0.00 78 1000.6
20260904192356 82 270 0.0 0.0 0.00 0.12 0.00 81 1000.8
20260904190855 81 248 0.0 0.0 0.00 0.12 0.00 82 1001.0
20260904185356 79 248 0.0 0.0 0.00 0.12 0.00 84 1000.6
20260904183855 79 248 0.0 0.0 0.00 0.16 0.00 86 1000.9
20260904182356 78 248 0.0 0.0 0.00 0.43 0.00 87 1000.9
20260904180856 77 225 0.0 0.0 0.00 0.57 0.00 88 1001.0
20260904175355 77 203 0.0 0.0 0.00 0.63 0.00 88 1001.0
20260904173857 77 180 0.0 0.0 0.00 0.69 0.00 89 1000.6
20260904172357 76 248 0.0 0.0 0.00 0.69 0.00 96 1001.0
20260904170857 76 180 0.0 0.0 0.00 0.69 0.00 91 1001.3
20260904165356 75 90 0.0 0.0 0.00 0.69 0.00 92 1001.0
20260904163857 74 90 0.0 0.0 0.00 0.69 0.00 92 1001.0
20260904162356 74 135 0.0 0.0 0.00 0.69 0.00 93 1001.0
20260904160856 74 158 0.0 0.0 0.00 0.69 0.00 94 1001.3
20260904155357 73 203 0.0 0.0 0.00 0.69 0.00 94 1001.6
20260904153855 73 158 0.0 0.0 0.00 0.69 0.00 94 1002.0
20260904152357 72 158 0.0 0.0 0.00 0.69 0.00 94 1001.6
20260904150857 72 203 0.0 0.0 0.00 0.69 0.00 95 1002.3
20260904145356 71 203 0.0 0.0 0.00 0.69 0.00 95 1002.3
20260904143857 71 158 0.0 0.0 0.00 0.69 0.00 95 1002.3
20260904142357 69 180 0.0 0.0 0.00 0.69 0.00 95 1002.0
20260904140856 69 113 0.0 0.0 0.00 0.69 0.00 95 1001.6
20260904135357 69 113 0.0 0.0 0.00 0.69 0.00 95 1002.0
20260904133857 68 113 0.0 0.0 0.00 0.69 0.00 94 1002.0
20260904132355 68 113 0.0 0.0 0.00 0.69 0.00 94 1002.7
20260904130856 68 113 0.0 0.0 0.00 0.69 0.00 94 1002.8
20260904125355 68 113 0.0 0.0 0.00 0.69 0.00 94 1002.3
20260904123855 68 113 0.0 0.0 0.00 0.69 0.00 94 1002.7
20260904122356 68 113 0.0 0.0 0.00 0.69 0.00 94 1002.3
20260904120856 68 113 0.0 0.0 0.00 0.69 0.00 94 1002.3
20260904115356 68 113 0.0 0.0 0.00 0.69 0.00 94 1002.4
20260904113856 68 113 0.0 0.0 0.00 0.69 0.00 94 1002.7
20260904112356 68 113 0.0 0.0 0.00 0.69 0.00 94 1002.0
20260904110857 68 113 0.0 0.0 0.00 0.69 0.00 94 1001.3
20260904105356 68 113 0.0 0.0 0.00 0.69 0.00 94 1001.0
20260904103857 68 113 0.0 0.0 0.00 0.69 0.00 94 1001.0
20260904102356 68 135 0.0 0.0 0.00 0.69 0.00 94 1000.3
20260904100857 68 113 0.0 0.0 0.00 0.69 0.00 94 1001.3
20260904095356 68 113 0.0 0.0 0.00 0.69 0.00 94 1000.6
20260904093856 68 135 0.0 0.0 0.00 0.69 0.00 94 1000.6